Visibility
9.7 15.0 15.0 9.0 9.1 15.0 15.0 15.0 15.0 15.0 13.2 11.3 15.0 15.0 15.0 15.0 15.0 15.0 15.0 15.0 15.0 15.0
9.4 15.0 13.6 15.0 15.0 15.0 15.0 15.0 15.0 15.0 15.0 15.0 15.0 15.0 15.0 15.0 15.0 15.0 15.0 15.0 15.0 15.0
15.0 11.8 15.0 15.0 15.0 15.0 15.0 15.0 15.0 15.0 15.0 15.0 15.0 14.0 15.0 15.0 15.0 15.0 15.0 10.9 15.0 15.0
15.0 15.0 15.0 15.0 15.0 15.0 15.0 15.0 15.0 15.0 14.9 14.9 15.0 14.5 15.0 15.0 15.0 15.0 14.1 13.4 15.0 5.8
15.0 15.0 15.0 15.0 15.0 15.0 15.0 15.0 15.0 15.0 15.0 15.0 12.8 5.5 6.4 14.0 5.2 5.2 15.0 2.0 2.5 10.1
15.0 15.0 15.0 15.0 15.0 15.0 15.0 15.0 15.0 15.0 15.0 15.0 15.0 15.0 15.0 15.0 15.0 15.0 8.2 15.0 15.0 11.8
15.0 15.0 15.0 15.0 15.0 15.0 15.0 15.0 15.0 15.0 15.0 15.0 15.0 15.0 15.0 15.0 15.0 15.0 13.3 3.1 15.0 15.0
15.0 15.0 15.0 15.0 15.0 15.0 15.0 15.0 15.0 15.0 15.0 15.0 15.0 15.0 15.0 15.0 15.0 15.0 15.0 15.0 15.0 15.0
0.2 0.2 0.7 3.3 14.6 15.0 15.0 15.0 15.0 15.0 15.0 15.0 15.0 15.0 15.0 15.0 15.0 15.0 15.0 15.0 15.0 15.0
0.1 0.5 2.4 5.5 12.7 13.2 14.1 15.0 15.0 15.0 15.0 15.0 15.0 14.9 15.0 15.0 15.0 15.0 15.0 15.0 15.0 15.0
2.6 4.0 2.2 4.6 3.4 5.8 10.1 11.7 8.6 9.6 14.1 15.0 15.0 13.8 9.9 15.0 15.0 15.0 15.0 15.0 15.0 15.0
0.9 1.0 1.8 0.8 0.3 0.3 1.4 4.3 5.7 10.7 7.1 9.5 11.5 15.0 15.0 0.1 3.1 15.0 15.0 15.0 15.0 15.0
0.5 2.2 4.0 1.1 1.2 1.0 0.9 0.7 1.6 6.6 6.4 7.6 14.3 15.0 15.0 1.8 13.9 5.9 15.0 15.0 15.0 12.4
15.0 2.3 2.6 2.7 1.2 1.4 4.9 4.3 4.1 3.8 2.4 3.8 0.6 0.2 15.0 3.5 11.0 7.6 6.8 14.7 15.0 15.0